ATLAS 5 CENTAUR DEB, 43991

Orbit data source: Space-Track

ATLAS 5 CENTAUR DEB, 43991 is space debris in HEO originally from a launch on Wed, 17 Sep 2014 UTC launched from the Air Force Eastern Test Range (AFETR). Debris objects in space refer to the collection of defunct objects orbiting the Earth. Examples of debris include non-operational satellites, rocket bodies, and fragments generated from explosions, collisions, or faulty payload assembly.

Loading next visibility...
Identifier
43991, 2014-055AW
Orbit
HEO
Country
Flag of USUS
Related business
Flag of USUnited Launch Alliance/Lockheed Martin (US)
Manufacturer
Unknown
Mission
Spacecraft
Bus & Motor
Unknown
Mass
Unknown
Launch date (UTC)
2014-09-17 (11 years ago)
Launch vehicle
Unknown
Launch site
Air Force Eastern Test Range (AFETR)
Object type
Payload
Rocket body
Debris
Shape & HBR
Unknown shape, 1.1 m
Radar Cross Section
Small (<0.1 m²)

Expand to show TLE details & history
Last TLE update: 1 day ago

TLE from 1 day ago
0 ATLAS 5 CENTAUR DEB
1 43991U 14055AW  25290.55935924 -.00000029  00000-0  00000-0 0  9993
2 43991  19.5269 195.8627 4669039  77.7434 329.1392  1.82442645 46899
Epoch: 2025-10-17T13:25Z
TLE epoch observation values (Epoch: 2025-10-17T13:25:28.638Z)
Latitude
0.00003°
Longitude
-31.7794°
Altitude
13,758.891 km
Speed
5.05 km/s
True Right ascension
13h 03m 34s
True Declination
0° 00' 00"
Sunlit
Object was in daylight at epoch
Visualization orbit readout
Latitude
Unknown
Longitude
Unknown
Altitude
Unknown
Speed
Unknown
Apparent Right ascension
Unknown
Apparent Declination
Unknown
Sunlit
N/A
Visualization observer readout
Local Sidereal Time
17:04:16
Azimuth
Unknown
Elevation
Unknown
Doppler factor
Unknown
Orbital elements
Apogee altitude
35,125.068 km
Perigee altitude
8,704.785 km
Semi-major axis
28,293.063 km
Eccentricity
0.4669
Inclination
19.5269°
RAAN
195.8627°
Arg. of periapsis
77.7434°
True anomaly
282.15244°
Mean anomaly
329.1392°
Eccentric anomaly
308.08232°
Mean motion
0.45606 °/min
Orbital period
789.37 mins
BSTAR
0
Loading maneuver chart data...
Computing Atmospheric mass density...

Documentation

Showing up to 5 results
|